When you browse on this site, cookies collect data to enhance your experience and personalize the content and advertising you see.
Visit our Privacy Policy to learn more. By continuing to use the site, you agree to this use of cookies and data.
  • En España
  • Lista de países
  • Para 7 días
  • Temperatura del agua
  • Mapa Satelital
  • El tiempo en el mapa
  • Informadores
  • user-avatar
    Iniciar sesión

    Tiempo cada hora Makoshyne

    Hoy, 23 Mayo, Jueves

    Tiempo Temperatura Precipitaciones Viento Presión Humedad
    00:00 +15°C° 0 mm 1 mps 745 mmHg 93%
    01:00 +14°C° 0 mm 0 mps 745 mmHg 93%
    02:00 +13°C° 0 mm 0 mps 745 mmHg 94%
    03:00 +14°C° 0 mm 0 mps 745 mmHg 94%
    04:00 +14°C° 0 mm 0 mps 745 mmHg 94%
    05:00 +14°C° 0 mm 0 mps 745 mmHg 95%
    06:00 +16°C° 0 mm 0 mps 745 mmHg 89%
    07:00 +19°C° 0 mm 1 mps 746 mmHg 84%
    08:00 +21°C° 0 mm 1 mps 746 mmHg 78%
    09:00 +22°C° 0 mm 1 mps 746 mmHg 72%
    10:00 +23°C° 0 mm 1 mps 745 mmHg 65%
    11:00 +25°C° 0 mm 1 mps 745 mmHg 59%
    12:00 +25°C° 0.1 mm 1 mps 745 mmHg 57%
    13:00 +26°C° 0.1 mm 1 mps 745 mmHg 55%
    14:00 +24°C° 0.1 mm 0 mps 745 mmHg 53%
    15:00 +26°C° 0.6 mm 1 mps 745 mmHg 58%
    16:00 +25°C° 0.6 mm 1 mps 745 mmHg 62%
    17:00 +25°C° 0.6 mm 1 mps 745 mmHg 66%
    18:00 +23°C° 0 mm 1 mps 745 mmHg 70%
    19:00 +22°C° 0 mm 1 mps 745 mmHg 74%
    20:00 +20°C° 0 mm 1 mps 745 mmHg 77%
    21:00 +19°C° 0.9 mm 1 mps 745 mmHg 80%
    22:00 +19°C° 0.9 mm 1 mps 745 mmHg 83%
    23:00 +18°C° 0.9 mm 1 mps 745 mmHg 86%

    Mañana, 24 Mayo, Viernes

    Tiempo Temperatura Precipitaciones Viento Presión Humedad
    00:00 +18°C° 0.1 mm 1 mps 745 mmHg 87%
    01:00 +16°C° 0.1 mm 1 mps 746 mmHg 88%
    02:00 +16°C° 0.1 mm 1 mps 746 mmHg 88%
    03:00 +15°C° 0 mm 0 mps 746 mmHg 88%
    04:00 +16°C° 0 mm 0 mps 746 mmHg 87%
    05:00 +16°C° 0 mm 0 mps 746 mmHg 86%
    06:00 +17°C° 0 mm 0 mps 746 mmHg 82%
    07:00 +19°C° 0 mm 0 mps 746 mmHg 77%
    08:00 +21°C° 0 mm 0 mps 746 mmHg 72%
    09:00 +22°C° 0.9 mm 0 mps 746 mmHg 67%
    10:00 +25°C° 0.9 mm 1 mps 746 mmHg 62%
    11:00 +26°C° 0.9 mm 1 mps 746 mmHg 57%
    12:00 +26°C° 1.5 mm 1 mps 745 mmHg 57%
    13:00 +27°C° 1.5 mm 1 mps 745 mmHg 56%
    14:00 +27°C° 1.5 mm 1 mps 745 mmHg 55%
    15:00 +27°C° 0.8 mm 1 mps 745 mmHg 58%
    16:00 +24°C° 0.8 mm 0 mps 745 mmHg 61%
    17:00 +24°C° 0.8 mm 0 mps 745 mmHg 63%
    18:00 +24°C° 0.7 mm 1 mps 745 mmHg 70%
    19:00 +21°C° 0.7 mm 2 mps 745 mmHg 76%
    20:00 +19°C° 0.7 mm 3 mps 745 mmHg 83%
    21:00 +19°C° 1 mm 3 mps 745 mmHg 85%
    22:00 +18°C° 1 mm 2 mps 745 mmHg 87%
    23:00 +18°C° 1 mm 2 mps 745 mmHg 89%

    Pasado mañana, 25 Mayo, Sábado

    Tiempo Temperatura Precipitaciones Viento Presión Humedad
    00:00 +18°C° 0 mm 2 mps 744 mmHg 89%
    01:00 +17°C° 0 mm 2 mps 744 mmHg 90%
    02:00 +17°C° 0 mm 2 mps 744 mmHg 90%
    03:00 +17°C° 0.6 mm 2 mps 744 mmHg 91%
    04:00 +16°C° 0.6 mm 2 mps 744 mmHg 92%
    05:00 +16°C° 0.6 mm 1 mps 744 mmHg 93%
    06:00 +18°C° 0.1 mm 2 mps 744 mmHg 88%
    07:00 +19°C° 0.1 mm 2 mps 744 mmHg 84%
    08:00 +21°C° 0.1 mm 2 mps 744 mmHg 79%
    09:00 +23°C° 0.9 mm 2 mps 743 mmHg 74%
    10:00 +24°C° 0.9 mm 2 mps 743 mmHg 68%
    11:00 +25°C° 0.9 mm 2 mps 743 mmHg 63%
    12:00 +25°C° 0.3 mm 3 mps 743 mmHg 63%
    13:00 +25°C° 0.3 mm 3 mps 742 mmHg 62%
    14:00 +25°C° 0.3 mm 4 mps 742 mmHg 62%
    15:00 +25°C° 0.5 mm 3 mps 742 mmHg 66%
    16:00 +24°C° 0.5 mm 3 mps 742 mmHg 71%
    17:00 +24°C° 0.5 mm 3 mps 742 mmHg 75%
    18:00 +21°C° 0.7 mm 3 mps 742 mmHg 80%
    19:00 +20°C° 0.7 mm 3 mps 742 mmHg 84%
    20:00 +18°C° 0.7 mm 3 mps 742 mmHg 89%
    21:00 +17°C° 0 mm 3 mps 742 mmHg 91%
    22:00 +17°C° 0 mm 3 mps 742 mmHg 92%
    23:00 +16°C° 0 mm 3 mps 743 mmHg 93%

    26 Mayo, Domingo

    Tiempo Temperatura Precipitaciones Viento Presión Humedad
    00:00 +16°C° 0.1 mm 3 mps 743 mmHg 94%
    01:00 +16°C° 0.1 mm 3 mps 743 mmHg 94%
    02:00 +16°C° 0.1 mm 3 mps 743 mmHg 94%
    03:00 +14°C° 0 mm 4 mps 743 mmHg 94%
    04:00 +14°C° 0 mm 4 mps 743 mmHg 93%
    05:00 +13°C° 0 mm 4 mps 744 mmHg 93%
    06:00 +15°C° 0 mm 4 mps 744 mmHg 89%
    07:00 +17°C° 0 mm 4 mps 744 mmHg 85%
    08:00 +18°C° 0 mm 3 mps 745 mmHg 81%
    09:00 +19°C° 0.1 mm 4 mps 745 mmHg 75%
    10:00 +20°C° 0.1 mm 4 mps 745 mmHg 70%
    11:00 +21°C° 0.1 mm 4 mps 745 mmHg 64%
    12:00 +21°C° 0.1 mm 4 mps 745 mmHg 63%
    13:00 +22°C° 0.1 mm 5 mps 745 mmHg 61%
    14:00 +22°C° 0.1 mm 5 mps 745 mmHg 60%
    15:00 +22°C° 0.1 mm 5 mps 745 mmHg 61%
    16:00 +21°C° 0.1 mm 4 mps 744 mmHg 63%
    17:00 +21°C° 0.1 mm 4 mps 744 mmHg 65%
    18:00 +20°C° 0 mm 3 mps 744 mmHg 70%
    19:00 +18°C° 0 mm 3 mps 744 mmHg 75%
    20:00 +17°C° 0 mm 2 mps 744 mmHg 80%
    21:00 +16°C° 0.2 mm 3 mps 744 mmHg 82%
    22:00 +15°C° 0.2 mm 4 mps 744 mmHg 85%
    23:00 +15°C° 0.2 mm 4 mps 744 mmHg 88%

    27 Mayo, Lunes

    Tiempo Temperatura Precipitaciones Viento Presión Humedad
    00:00 +14°C° 1.7 mm 4 mps 744 mmHg 90%
    01:00 +13°C° 1.7 mm 4 mps 745 mmHg 91%
    02:00 +12°C° 1.7 mm 4 mps 745 mmHg 92%
    03:00 +11°C° 0 mm 4 mps 745 mmHg 92%
    04:00 +10°C° 0 mm 4 mps 746 mmHg 91%
    05:00 +8°C° 0 mm 5 mps 746 mmHg 91%
    06:00 +9°C° 0 mm 5 mps 747 mmHg 86%
    07:00 +10°C° 0 mm 6 mps 747 mmHg 80%
    08:00 +11°C° 0 mm 7 mps 748 mmHg 75%
    09:00 +12°C° 0 mm 7 mps 748 mmHg 72%
    10:00 +14°C° 0 mm 7 mps 749 mmHg 68%
    11:00 +15°C° 0 mm 7 mps 749 mmHg 65%
    12:00 +15°C° 0 mm 6 mps 750 mmHg 64%
    13:00 +16°C° 0 mm 6 mps 750 mmHg 64%
    14:00 +16°C° 0 mm 5 mps 750 mmHg 63%
    15:00 +16°C° 0 mm 5 mps 750 mmHg 64%
    16:00 +18°C° 0 mm 4 mps 750 mmHg 65%
    17:00 +18°C° 0 mm 3 mps 751 mmHg 66%
    18:00 +16°C° 0 mm 3 mps 751 mmHg 71%
    19:00 +14°C° 0 mm 3 mps 751 mmHg 76%
    20:00 +14°C° 0 mm 2 mps 751 mmHg 81%
    21:00 +13°C° 0 mm 2 mps 751 mmHg 83%
    22:00 +13°C° 0 mm 2 mps 752 mmHg 85%
    23:00 +11°C° 0 mm 3 mps 752 mmHg 87%

    28 Mayo, Martes

    Tiempo Temperatura Precipitaciones Viento Presión Humedad
    00:00 +12°C° 0 mm 2 mps 752 mmHg 88%
    01:00 +10°C° 0 mm 2 mps 752 mmHg 89%
    02:00 +10°C° 0 mm 2 mps 752 mmHg 91%
    03:00 +10°C° 0 mm 2 mps 752 mmHg 91%
    04:00 +10°C° 0 mm 2 mps 753 mmHg 90%
    05:00 +12°C° 0 mm 2 mps 753 mmHg 90%
    06:00 +13°C° 0 mm 3 mps 753 mmHg 85%
    07:00 +16°C° 0 mm 3 mps 753 mmHg 79%
    08:00 +18°C° 0 mm 3 mps 753 mmHg 73%
    09:00 +19°C° 0 mm 4 mps 753 mmHg 70%
    10:00 +20°C° 0 mm 4 mps 753 mmHg 66%
    11:00 +21°C° 0 mm 4 mps 752 mmHg 63%
    12:00 +21°C° 0 mm 4 mps 752 mmHg 65%
    13:00 +22°C° 0 mm 4 mps 752 mmHg 66%
    14:00 +22°C° 0 mm 4 mps 752 mmHg 68%
    15:00 +22°C° 0 mm 4 mps 751 mmHg 71%
    16:00 +22°C° 0 mm 4 mps 751 mmHg 73%
    17:00 +22°C° 0 mm 4 mps 751 mmHg 76%
    18:00 +21°C° 0 mm 4 mps 750 mmHg 77%
    19:00 +20°C° 0 mm 5 mps 750 mmHg 77%
    20:00 +20°C° 0 mm 5 mps 750 mmHg 78%
    21:00 +19°C° 0 mm 5 mps 750 mmHg 76%
    22:00 +19°C° 0 mm 5 mps 750 mmHg 74%
    23:00 +19°C° 0 mm 5 mps 750 mmHg 73%
    Mostrar más